Казым-Мыс

Россия / Ямало-Ненецкий автономный округ     64°40′11″N   65°38′16″E
темп.,
°C
ветер,
м/с
пор.,
м/с
влажн.,
%
обл.,
%
осадки,
мм/ч
давл.,
гПа
погр.,
м
5 марта, пт
пт523:00−15ю119898 0.3 99020
02:00−16ю1110094 0.0 99020
05:00−17св0010096 0.1 99120
08:00−17ссв1199100 0.0 99120
11:00−13ссз1295100 0.1 992134
14:00−11сз1292100 0.0 993265
17:00−12ссз1295100 0.1 99522
20:00−14с1297100 0.1 99631
6 марта, сб
сб623:00−15с1297100 0.1 99720
02:00−16ссв229796 0.1 99721
05:00−17ссв229797 0.2 99939
08:00−18ссв2297100 0.2 99959
11:00−15с129498 0.3 999226
14:00−14с2394100 0.1 1000316
17:00−15ссз2295100 0.1 100071
20:00−18с2294100 0.0 100234
7 марта, вс
вс723:00−19с2295100 0.0 100270
02:00−20с229884 0.0 100321
05:00−20с229892 0.1 100483
08:00−21с2398100 0.1 1005103
11:00−19ссв1295100 0.3 1006239
14:00−17ссв1292100 0.2 1007382
17:00−17ссв2396100 0.5 1008296
20:00−19ссв2498100 0.3 100895
8 марта, пн
пн823:00−21ссв2498100 0.4 1009123
02:00−22ссв359890 0.1 1009180
05:00−25ссв359886 0.2 1009143
08:00−26ссв369785 0.1 1009237
11:00−24ссв359679 0.0 1008269
14:00−23ссв359497 0.0 1008413
17:00−25ссв259598 0.0 1008247
20:00−31ссв239718 0.0 100840
9 марта, вт
вт923:00−34ссв22979 0.0 101019
02:00−35ссв12989 0.0 101019
05:00−36св119935 0.0 101119
08:00−35вюв119876 0.0 101219
11:00−29вюв119586 0.1 1012184
14:00−26ю1192100 0.0 1012340
17:00−27с1196100 0.0 101219
20:00−33ссв119945 0.0 101119